Weather History for KCMI - January, 2012

Change the Weather History Date:

Monday, January 9, 2012

  Actual Average Record
Temperature  
Mean Temperature 36 °F 25 °F  
Max Temperature 49 °F 33 °F 52 °F (2002)
Min Temperature 23 °F 17 °F -15 °F (1999)
Degree Days  
Heating Degree Days 29 40  
Month to date heating degree days 280 356  
Since 1 July heating degree days 2185 2637  
Cooling Degree Days 0 0  
Month to date cooling degree days 0 0  
Year to date cooling degree days 0 0  
Moisture  
Dew Point 25 °F    
Average Humidity 62    
Maximum Humidity 88    
Minimum Humidity 36    
Precipitation  
Precipitation 0.00 in 0.08 in 0.32 in (1950)
Month to date precipitation 0.03 0.76  
Year to date precipitation 0.03 0.76  
Sea Level Pressure  
Sea Level Pressure 30.17 in    
Wind  
Wind Speed 7 mph (West)    
Max Wind Speed 16 mph    
Max Gust Speed 18 mph    
Visibility 10 miles    
Events      
T = Trace of Precipitation, MM = Missing Value Source: NWS Daily Summary

Daily Weather History Graph

Daily Weather History Graph

Search for Another Location

Airport or City:

Trip Planner

Search our weather history database for the weather conditions in past years. The results will help you decide how hot, cold, wet, or windy it might be!

Date:

Astronomy

Jan. 09, 2012 Rise Set
Actual Time 7:14 AM CST 4:45 PM CST
Civil Twilight 6:44 AM CST 5:15 PM CST
Nautical Twilight 6:11 AM CST 5:49 PM CST
Astronomical Twilight 5:38 AM CST 6:21 PM CST
Moon 5:31 PM CST (1/9) 7:15 AM CST (1/9)
Length of Visible Light 10h 30m
Length of Day
9h 30m
Full, 100% of the Moon is Illuminated
Jan 9
Full
Jan 16
Last Quarter
Jan 23
New
Jan 30
First Quarter
Feb 7
Full

Hourly Weather History & Observations

Time (CST) Temp. Windchill Dew Point Humidity Pressure Visibility Wind Dir Wind Speed Gust Speed Precip Events Conditions
12:53 AM 30.9 °F 27.5 °F 25.0 °F 79% 30.29 in 10.0 mi ENE 3.5 mph - N/A   Scattered Clouds
1:53 AM 28.0 °F 22.8 °F 24.1 °F 85% 30.29 in 10.0 mi NNE 4.6 mph - N/A   Clear
2:53 AM 28.9 °F 25.2 °F 24.1 °F 82% 30.26 in 10.0 mi ENE 3.5 mph - N/A   Clear
3:53 AM 28.0 °F 24.2 °F 23.0 °F 81% 30.23 in 10.0 mi ENE 3.5 mph - N/A   Clear
4:53 AM 26.1 °F 21.9 °F 21.9 °F 84% 30.24 in 10.0 mi NE 3.5 mph - N/A   Clear
5:53 AM 25.0 °F 20.7 °F 21.0 °F 85% 30.24 in 10.0 mi NNE 3.5 mph - N/A   Clear
6:53 AM 24.1 °F - 19.9 °F 84% 30.22 in 10.0 mi Calm Calm - N/A   Clear
7:53 AM 27.0 °F - 21.9 °F 81% 30.23 in 10.0 mi Calm Calm - N/A   Clear
8:53 AM 34.0 °F - 28.0 °F 79% 30.23 in 10.0 mi Calm Calm - N/A   Clear
9:53 AM 39.2 °F 35.0 °F 28.4 °F 65% 30.20 in 10.0 mi WSW 5.8 mph - N/A   Clear
10:53 AM 43.0 °F 38.2 °F 27.0 °F 53% 30.21 in 10.0 mi West 8.1 mph - N/A   Clear
11:53 AM 46.9 °F - 27.0 °F 46% 30.17 in 10.0 mi West 11.5 mph - N/A   Clear
12:53 PM 46.9 °F - 26.1 °F 44% 30.12 in 10.0 mi West 11.5 mph - N/A   Clear
1:53 PM 48.0 °F - 23.0 °F 37% 30.11 in 10.0 mi WSW 10.4 mph - N/A   Clear
2:53 PM 48.0 °F - 23.0 °F 37% 30.09 in 10.0 mi WSW 13.8 mph - N/A   Clear
3:53 PM 46.0 °F 41.0 °F 24.1 °F 42% 30.10 in 10.0 mi WSW 10.4 mph - N/A   Clear
4:53 PM 41.0 °F 35.2 °F 26.1 °F 55% 30.12 in 10.0 mi SW 9.2 mph - N/A   Clear
5:53 PM 37.9 °F 30.9 °F 26.1 °F 62% 30.12 in 10.0 mi WSW 10.4 mph - N/A   Clear
6:53 PM 36.0 °F 28.5 °F 26.1 °F 67% 30.12 in 10.0 mi WSW 10.4 mph - N/A   Clear
7:53 PM 33.8 °F 27.0 °F 26.6 °F 75% 30.09 in 10.0 mi WSW 8.1 mph - N/A   Clear
8:53 PM 32.0 °F 25.6 °F 25.0 °F 75% 30.10 in 10.0 mi West 6.9 mph - N/A   Clear
9:53 PM 30.9 °F 23.5 °F 25.0 °F 79% 30.10 in 10.0 mi West 8.1 mph - N/A   Clear
10:53 PM 30.9 °F 22.2 °F 25.0 °F 79% 30.09 in 10.0 mi WSW 10.4 mph - N/A   Clear
11:53 PM 30.9 °F 22.2 °F 25.0 °F 79% 30.06 in 10.0 mi West 10.4 mph - N/A   Clear